sat.trackr.live / text

‹ back to catalog

STARLINK-30994

NORAD 58483 · 2023-186L

PAYLOAD ACTIVE UNKNOWN

§ Identity

Operator
Country
US
Launch date
2023-12-03
Launch site
AFETR
Launch vehicle
Mass (kg)
RCS (m²)

Purposes: comms

External: N2YO · Heavens-Above · Gunter

§ Orbital elements

Epoch: 2026-09-20T22:47:28.978944Z

Period
93.20 min
Inclination
42.9920°
Eccentricity
0.0016347
Mean motion
15.45032667 rev/d
Perigee alt
420.2 km
Apogee alt
442.4 km
Semi-major
6,809.4 km
B*
1.4608e-3
RAAN
227.2683°
Arg perigee
139.2587°
Mean anomaly
220.9496°
Rev number
15,778

§ Raw data

STARLINK-309941 58483U 23186L   26263.94964096  .00071290  00000+0  14608-2 0  99932 58483  42.9920 227.2683 0016347 139.2587 220.9496 15.45032667157781

JSON: /api/v1/satellites/58483 · /tle

For live sub-satellite position, see the globe view (requires WebGL).

§ Visibility from observer

Set your observer location to see the next 7 days of passes ≥ 10°. The values pass through the URL so the page stays shareable.

No JS? Fill the form by hand. The geolocation button needs JavaScript.